RH
41 46 37 31 22 16 15 22 40 40 57 76 71 61 61 59 59 55 53 48 49 52 47 36 20 17 21 22 21 18 15 11 9 14 50 61 97 64 69 71 63 68 78 88 85 95 93 90 96 88 89 89 87 83
37 46 44 32 28 19 16 18 34 33 45 83 71 65 65 60 61 64 59 56 55 54 47 21 42 22 22 25 28 26 22 18 13 12 13 26 65 65 67 93 62 54 58 62 67 78 83 74 69 71 84 88 71 61
38 44 47 32 30 22 18 17 24 30 45 86 77 67 70 66 64 60 65 57 52 54 51 50 56 49 19 26 39 41 32 28 22 18 12 15 19 31 60 86 61 47 42 42 52 52 58 53 50 49 50 51 50 48
41 44 46 29 31 23 19 18 31 53 44 72 88 74 75 64 66 63 66 50 57 61 65 61 51 47 20 28 45 55 52 45 38 31 23 16 14 21 23 22 21 19 23 29 35 37 31 29 28 30 28 26 25 24
45 45 40 32 43 24 42 23 58 75 39 64 95 88 82 62 66 63 61 60 63 75 76 59 50 33 20 25 41 52 56 60 56 45 39 26 21 20 18 20 11 9 9 12 14 13 10 8 8 6 5 5 6 6
45 46 36 32 36 39 59 47 80 71 35 54 83 84 80 78 65 69 57 60 75 77 77 66 50 32 23 22 34 41 52 63 64 60 50 44 26 27 19 15 10 9 8 8 7 7 7 7 7 7 5 4 4 3
35 37 33 32 30 62 68 57 82 60 39 79 79 79 78 82 64 79 73 82 85 74 69 60 31 25 31 30 34 40 53 65 69 63 52 49 39 40 31 18 14 12 17 17 16 15 15 13 12 12 11 9 8 6
35 36 39 34 35 68 72 68 86 90 75 79 71 77 80 76 60 72 64 59 62 63 56 51 26 36 40 48 48 50 61 68 64 59 52 53 50 46 32 22 13 15 22 23 23 23 22 21 19 17 16 13 10 8
36 39 45 36 42 68 88 83 94 88 74 70 90 90 84 75 62 67 62 54 54 55 67 30 33 48 59 64 70 71 73 72 62 54 48 52 46 35 30 23 12 16 24 27 27 28 28 27 25 23 21 19 15 12
37 40 50 38 59 92 94 92 91 94 77 72 92 91 94 79 70 64 55 56 61 40 51 45 65 66 66 74 81 82 80 73 60 53 49 41 32 27 29 32 19 13 26 34 34 32 32 31 30 28 24 21 17 12
38 47 52 42 90 96 95 88 93 95 90 88 94 92 90 77 69 65 67 68 40 33 45 60 66 70 70 76 82 86 77 69 59 55 52 40 31 30 28 25 24 17 30 42 46 46 43 37 34 33 29 24 19 14
39 54 54 61 94 94 94 92 95 92 94 94 96 96 87 62 70 72 73 51 37 66 74 74 85 92 89 83 88 86 77 72 61 64 55 41 36 35 34 32 26 23 37 48 54 54 54 50 42 38 34 29 22 14
62 59 57 89 96 94 96 96 96 92 96 96 97 96 74 74 69 63 56 50 58 62 67 79 93 96 95 95 94 94 78 70 69 61 51 42 40 39 36 31 23 30 41 63 60 58 65 63 52 43 39 33 24 15
75 68 85 95 96 96 94 95 94 95 97 97 98 96 80 70 65 53 49 54 61 72 83 86 89 98 96 97 96 95 95 86 59 49 51 47 44 28 29 25 21 24 53 68 71 68 76 78 61 49 43 36 28 16
93 95 95 95 97 96 95 96 94 96 97 96 96 90 71 53 55 54 58 70 83 93 94 96 96 95 97 97 95 96 90 83 68 49 48 39 47 57 39 29 21 41 87 84 86 80 84 83 72 56 47 39 32 20
96 96 93 94 96 96 96 96 96 96 98 99 97 86 70 66 61 61 73 93 95 95 96 96 96 96 96 97 96 91 84 64 54 64 84 83 88 96 82 58 49 83 96 94 94 91 89 86 81 61 50 43 34 20
96 94 95 96 96 96 96 97 97 97 98 99 92 76 71 64 66 74 94 95 96 96 97 97 95 94 96 96 94 87 71 75 93 95 97 97 98 98 92 83 94 99 97 97 97 95 92 92 89 67 48 38 27 19
95 96 96 96 96 96 97 97 98 98 97 96 94 76 74 80 91 93 95 96 97 97 96 97 97 96 93 88 90 96 96 97 97 97 98 95 96 99 99 98 99 98 97 98 99 97 95 96 93 62 44 33 24 21
96 96 96 96 96 97 98 97 98 96 97 93 80 75 85 95 96 96 96 97 97 97 97 96 97 91 88 95 97 98 97 97 96 96 97 98 98 97 97 97 98 98 98 99 99 98 99 99 86 56 39 28 26 30
96 96 96 96 97 98 97 97 91 97 95 88 84 91 94 96 96 96 96 96 98 99 99 96 93 98 100 98 98 97 97 97 99 98 98 100 98 99 98 98 98 98 100 100 100 99 100 97 73 47 34 30 35 46
96 96 97 97 97 97 96 96 97 95 91 90 88 92 95 95 96 95 97 100 100 98 98 98 97 100 99 99 99 98 98 97 97 98 95 95 99 98 98 99 100 100 100 100 100 100 100 85 62 44 37 38 49 66
96 97 97 97 97 97 97 97 97 95 97 96 97 96 96 94 94 98 99 96 92 85 86 98 100 92 92 98 94 98 97 99 99 98 98 97 98 98 98 99 100 100 100 100 100 100 94 81 58 43 43 54 71 86
97 97 97 97 97 97 96 96 98 97 97 96 96 95 94 99 98 93 89 83 81 83 91 98 100 95 93 96 98 99 99 99 98 97 95 96 97 99 100 100 100 100 100 100 100 99 79 55 46 46 55 72 87 91
96 97 97 96 96 96 95 95 94 96 95 95 99 99 98 96 88 82 85 89 95 98 99 100 100 100 99 98 99 98 96 92 85 88 96 100 100 100 100 100 100 100 100 100 94 67 49 46 50 61 76 87 92 93
97 95 92 90 93 85 95 97 96 100 100 100 100 95 88 84 83 91 100 100 100 100 100 100 100 100 99 95 88 84 83 86 95 100 100 100 100 100 100 100 100 100 100 93 68 50 50 55 66 80 90 94 95 95
44 58 59 73 98 91 96 97 97 98 95 92 94 90 86 96 100 98 100 100 100 100 100 100 100 99 94 90 90 93 99 100 100 100 100 100 100 100 100 100 100 96 75 55 51 54 60 69 82 93 98 97 96 98
53 57 60 67 94 99 93 92 93 94 98 99 97 98 100 100 100 100 100 100 100 100 100 99 96 95 96 98 100 100 100 100 100 100 100 100 100 100 100 98 84 62 57 58 59 61 64 72 86 97 99 98 99 100
79 79 83 91 99 98 100 100 100 100 100 100 100 100 100 100 100 99 100 100 98 97 95 96 98 100 100 100 100 100 100 100 100 100 100 100 100 100 94 72 64 63 64 66 69 71 75 79 90 98 99 99 100 100
95 98 96 94 96 98 100 100 100 100 100 100 100 100 100 100 100 100 100 100 98 96 97 98 99 100 100 100 100 100 100 100 100 100 100 100 94 76 66 64 65 66 69 74 77 79 84 90 93 97 99 100 100 100
90 89 91 90 91 94 97 100 99 98 97 98 99 99 100 100 100 100 99 97 95 90 85 86 92 95 99 100 100 100 100 100 100 98 89 73 67 66 68 70 73 76 80 82 85 91 94 99 99 99 100 100 100 100
84 80 70 58 59 55 50 38 30 35 66 57 53 68 75 79 80 80 54 42 36 35 37 37 37 39 42 47 55 64 69 70 71 71 71 72 73 77 82 86 88 88 86 84 82 81 82 88 92 95 97 98 98 98
15 14 18 19 27 29 35 38 39 41 44 70 49 42 44 38 45 62 76 77 81 83 81 80 87 92 90 78 57 47 48 56 65 72 77 81 85 91 98 100 96 90 84 79 77 78 80 82 84 86 86 87 88 89
41 41 37 39 42 40 36 45 48 47 49 46 46 44 47 49 66 80 85 86 79 81 86 86 84 89 92 97 100 100 98 90 76 68 70 79 87 96 100 100 100 96 91 90 90 94 97 96 95 90 84 80 76 74
Wind_Speed
26 25 24 24 26 27 26 26 28 29 33 39 38 35 33 32 26 23 24 25 26 25 21 15 14 13 15 17 19 17 9 15 7 5 1 0 3 2 4 4 4 2 1 2 4 2 7 6 4 6 8 10 11 14
30 28 26 23 24 27 28 27 27 29 32 39 36 34 36 32 31 26 25 25 26 24 21 6 17 15 12 12 16 17 15 15 11 7 5 3 3 4 4 3 6 4 2 2 5 6 7 6 8 9 11 13 15 15
34 32 30 27 26 25 26 27 28 31 31 38 35 34 36 36 33 30 27 25 25 21 15 12 23 17 9 7 12 15 15 15 13 11 7 5 5 5 5 8 12 10 11 10 9 11 13 13 14 14 15 17 19 20
38 35 32 29 28 27 22 24 25 37 32 36 37 36 33 35 33 31 25 23 24 19 16 26 24 14 8 6 9 14 15 15 14 13 10 9 9 9 10 11 14 13 11 10 14 17 19 18 18 17 19 22 24 25
42 39 35 31 33 26 24 24 27 37 36 38 36 37 32 32 30 30 26 24 22 23 26 28 22 10 8 6 8 14 19 19 17 15 13 12 14 13 14 16 15 11 11 12 10 9 14 16 16 16 17 19 21 23
44 42 39 34 32 27 26 27 34 33 38 42 36 36 36 32 31 31 30 24 26 25 29 30 17 10 9 8 9 13 20 23 22 21 18 16 13 13 11 12 9 8 8 8 8 9 11 13 14 16 16 18 20 22
46 45 42 39 32 29 27 31 37 31 38 44 34 39 40 30 28 27 27 25 26 26 28 19 9 2 4 8 11 13 21 26 24 25 22 19 15 17 23 27 14 12 8 8 8 10 11 12 14 15 15 16 18 20
49 47 44 40 34 31 28 33 39 35 40 37 37 42 37 28 30 26 30 31 29 27 23 7 6 6 8 9 13 18 24 28 24 21 22 22 19 21 22 15 14 13 8 7 7 9 11 13 17 18 18 17 17 19
52 49 46 42 34 32 32 37 34 37 38 37 40 40 39 28 34 29 33 35 33 24 12 9 4 4 8 12 17 22 24 21 18 16 19 16 19 21 20 14 13 11 8 9 9 10 12 14 16 19 20 21 20 21
55 51 47 45 35 38 35 33 37 39 39 40 41 38 37 30 35 29 34 37 13 8 13 5 1 3 11 16 19 23 13 9 12 12 16 18 28 18 20 21 20 16 10 10 11 13 15 16 17 19 21 23 24 25
57 54 50 44 41 41 34 39 41 42 38 42 38 34 30 34 33 26 16 6 4 3 7 10 3 7 13 16 22 13 12 10 7 10 9 11 33 20 16 16 21 21 12 11 15 17 20 21 20 21 23 24 25 27
57 55 51 48 47 41 38 39 38 39 39 41 32 30 29 28 13 7 7 5 4 2 5 10 12 15 17 19 24 14 11 7 8 13 9 14 23 25 21 17 19 20 12 15 20 25 26 24 22 22 23 25 26 28
58 55 53 56 46 45 37 34 35 35 36 29 30 27 13 7 10 7 7 6 4 11 15 18 20 22 26 25 17 10 9 11 12 9 14 25 19 23 21 17 21 16 14 21 25 28 26 26 24 23 24 25 26 26
57 58 58 50 40 42 43 41 40 42 32 32 23 12 7 10 8 15 14 9 11 15 18 23 29 32 32 28 16 7 11 10 8 14 31 26 18 16 14 16 21 17 22 28 27 28 27 27 25 24 24 25 26 26
59 55 44 35 38 41 41 41 40 35 27 23 14 11 15 11 18 14 14 19 22 26 32 35 37 35 34 25 15 10 7 10 11 20 18 16 17 20 15 19 21 23 28 25 26 29 29 28 26 25 25 26 27 27
49 44 49 45 45 40 35 32 33 26 24 32 30 24 19 22 23 25 25 31 35 36 39 41 34 16 14 11 12 14 12 21 26 22 26 30 32 32 22 25 29 31 28 27 28 30 30 29 27 26 26 27 29 28
37 42 37 43 39 28 22 26 27 29 32 37 34 34 35 39 38 35 37 38 38 40 41 37 18 11 10 11 13 20 31 31 32 35 35 35 32 29 26 30 32 29 28 30 31 30 30 28 28 26 26 27 28 26
40 39 39 25 24 17 25 28 27 32 37 43 44 43 41 38 37 38 39 39 41 40 39 38 30 27 21 25 30 33 33 34 35 36 35 33 30 28 29 28 28 29 31 31 29 29 28 28 27 25 25 27 27 25
28 20 19 22 22 22 28 30 34 40 39 40 44 43 37 37 37 35 37 36 35 36 35 34 20 26 33 34 34 34 35 36 37 36 34 31 30 31 29 28 31 32 32 30 29 28 27 26 25 24 25 26 25 24
16 19 16 13 19 27 31 31 33 35 41 40 37 35 32 34 34 32 27 26 30 34 37 37 36 34 34 35 35 35 36 37 37 38 36 34 31 29 29 31 31 32 29 28 27 26 25 23 23 24 25 25 23 22
14 12 15 18 29 33 30 28 25 27 32 34 35 32 33 31 24 28 29 30 31 32 32 32 32 31 29 31 33 35 36 36 37 36 36 34 30 30 30 29 28 27 26 25 24 23 22 22 22 23 24 23 22 20
22 20 21 22 26 35 39 37 32 27 27 28 27 24 23 29 26 23 23 25 27 28 26 24 26 28 30 31 31 32 31 31 30 28 27 26 25 24 23 23 23 23 23 22 21 21 21 21 22 22 22 21 19 18
17 17 20 22 26 25 19 25 25 27 24 21 21 24 23 22 21 20 20 19 23 25 25 27 29 32 32 28 26 25 24 21 20 20 22 23 23 22 21 19 19 18 19 20 20 19 20 21 21 21 20 19 18 16
19 20 21 13 16 11 14 15 18 19 21 21 18 18 18 17 20 23 26 26 24 25 27 28 25 20 21 20 18 19 21 23 23 22 22 21 19 17 15 15 15 17 18 18 18 19 21 21 20 18 18 17 16 15
16 14 10 11 11 13 15 16 14 14 14 11 12 15 18 21 23 25 27 26 26 25 20 19 20 18 18 22 25 26 25 23 20 18 17 15 14 14 14 15 16 17 17 18 19 19 19 19 17 17 16 15 14 14
9 8 8 6 9 8 7 5 4 6 12 15 13 15 18 19 17 12 17 18 18 18 17 17 20 25 29 30 28 25 22 19 17 15 15 15 15 15 15 16 16 17 17 18 18 18 17 17 16 15 15 14 14 13
6 4 8 8 6 5 6 9 11 13 14 17 18 17 15 8 9 13 16 16 17 20 27 33 35 34 30 25 21 18 15 14 14 14 14 14 15 15 16 16 16 17 17 17 17 17 17 16 15 15 14 14 14 14
5 6 4 4 5 8 11 13 14 12 9 10 11 8 7 6 11 17 22 28 32 35 33 29 25 22 19 18 17 15 14 14 14 15 15 16 17 17 17 18 18 18 17 17 16 16 15 15 15 14 13 13 13 14
3 1 5 7 10 12 13 13 12 12 13 13 15 18 22 25 26 26 27 25 23 21 20 19 18 17 16 16 15 15 15 16 16 17 18 19 19 19 18 18 18 17 16 15 15 15 15 14 14 14 14 14 14 14
5 8 8 9 8 7 7 8 11 12 13 13 14 14 15 15 16 16 16 17 17 17 17 17 17 17 17 17 17 18 18 20 20 20 20 20 19 18 17 16 15 14 14 13 13 12 12 12 13 13 14 14 14 14
2 2 3 3 3 4 6 8 9 9 9 10 10 10 9 10 10 11 14 16 17 17 18 18 19 18 19 19 19 19 19 20 20 19 19 18 17 16 15 14 13 12 11 11 11 11 11 11 11 11 12 13 13 13
6 7 7 7 6 7 8 9 7 9 9 6 8 9 9 9 11 13 16 20 21 20 21 21 21 20 20 20 19 19 18 18 18 18 17 16 15 14 14 13 13 13 12 12 11 11 11 12 12 12 13 13 14 14
8 7 7 7 8 9 9 6 8 9 4 6 11 10 11 12 13 18 23 26 27 27 27 28 29 28 26 23 22 21 20 19 18 17 17 16 16 15 15 15 15 14 14 14 14 14 14 15 15 15 15 15 15 15
Wind_Direction
289 296 305 312 317 318 319 320 327 332 343 348 348 352 353 347 341 342 341 342 349 350 345 337 359 356 7 14 21 18 21 21 12 18 351 208 200 295 286 302 349 357 178 217 136 173 228 244 244 213 231 255 261 266
280 286 291 298 307 312 314 315 319 322 327 345 345 346 348 340 340 331 328 330 334 340 341 6 349 340 345 8 13 17 20 16 12 6 351 318 290 262 268 286 261 268 226 257 229 222 220 242 254 258 253 261 273 275
274 280 286 294 300 305 310 312 314 315 318 337 340 342 342 339 332 331 320 325 330 330 333 324 334 322 305 339 3 8 7 6 4 356 338 321 301 274 263 261 260 262 251 254 243 249 247 264 267 268 269 271 274 275
269 274 281 289 295 296 305 307 310 311 305 315 334 338 339 336 333 334 324 324 329 326 326 327 328 307 265 304 347 360 359 354 350 344 331 307 296 288 269 266 271 273 264 256 254 258 269 270 271 274 276 277 279 281
266 270 273 279 285 285 298 294 297 305 296 303 323 327 333 336 329 331 322 320 323 326 322 325 320 289 237 279 322 343 348 345 337 327 318 308 294 279 281 276 278 256 266 266 274 271 275 281 286 287 289 289 290 290
263 267 270 271 275 278 285 282 290 301 293 300 315 318 327 332 321 325 326 316 315 319 322 326 310 267 267 259 295 323 335 335 326 318 311 299 288 269 268 267 280 268 264 255 275 280 286 294 298 300 300 297 295 292
260 263 265 268 265 273 279 275 291 291 293 302 306 313 322 328 324 316 320 315 308 309 312 318 297 226 280 289 297 307 322 325 317 305 297 288 278 267 264 270 275 265 275 280 278 276 278 282 287 289 291 292 294 295
257 260 264 266 264 269 267 268 291 287 292 299 295 306 319 326 325 303 303 307 307 306 304 260 246 269 306 328 311 312 318 318 313 297 293 285 278 269 271 294 249 235 268 288 290 294 296 293 295 297 295 294 295 295
255 258 260 261 258 260 263 271 288 296 290 289 292 307 318 319 331 304 296 300 304 291 268 237 253 306 331 338 332 326 325 314 304 297 292 289 279 273 296 287 239 240 274 297 303 307 307 303 302 302 303 303 302 301
253 254 256 257 249 257 266 265 284 290 282 285 290 307 318 322 323 309 298 310 293 265 204 191 90 335 337 344 344 335 313 309 295 302 303 286 293 332 299 270 252 247 270 302 315 319 318 312 308 306 304 305 305 305
247 252 252 250 248 259 258 267 283 279 280 281 289 302 310 321 312 299 288 272 266 239 214 199 276 315 328 331 329 326 300 290 272 282 276 273 300 324 314 278 249 243 260 308 323 326 320 314 314 311 309 308 307 305
244 248 249 243 248 258 262 268 280 277 279 282 296 301 309 315 286 256 249 237 229 253 282 257 272 292 298 311 320 313 278 263 257 270 265 280 304 305 306 282 244 231 262 314 324 326 313 306 309 309 306 304 304 305
242 245 242 245 252 271 263 263 266 276 286 290 294 296 309 261 240 234 236 223 240 296 303 299 276 279 287 288 288 276 260 250 260 249 265 287 299 301 297 277 225 236 298 319 317 308 305 301 302 303 301 301 301 301
239 240 243 256 255 261 250 261 271 279 270 278 280 252 256 227 227 229 236 255 273 284 290 296 293 287 286 285 281 246 247 253 242 249 274 293 297 303 290 255 238 264 298 301 299 302 302 297 295 297 299 298 299 298
234 238 246 257 248 245 254 263 263 263 267 250 252 236 230 243 240 238 256 271 275 277 290 290 290 294 284 273 258 240 233 228 243 270 294 291 294 298 282 258 254 277 289 291 296 298 300 294 290 294 298 299 299 299
244 243 244 248 246 249 258 252 250 257 250 236 247 246 257 265 257 263 266 278 283 292 299 292 288 273 253 231 231 221 229 251 279 292 290 288 287 291 267 261 263 280 290 287 292 295 296 292 288 290 295 298 297 297
234 239 247 235 241 249 240 235 239 240 242 245 251 261 269 283 283 284 284 284 288 297 296 286 276 267 239 232 236 247 264 281 281 289 293 297 296 290 259 258 271 288 286 288 291 292 293 289 285 286 290 293 293 296
237 249 243 231 241 241 246 233 230 232 238 246 255 264 279 283 282 282 285 289 289 290 289 282 277 258 253 269 273 278 281 286 291 292 292 294 291 286 272 268 277 282 285 287 286 289 289 286 280 283 288 291 293 294
233 217 226 225 223 244 234 240 229 239 246 251 257 271 281 285 285 284 289 291 292 289 286 280 267 270 279 282 283 282 284 288 291 290 290 288 282 284 283 279 280 282 283 284 285 287 285 280 279 284 287 289 291 292
218 221 217 222 221 219 218 227 235 239 251 266 270 272 277 286 285 283 285 288 285 284 281 277 285 285 287 286 286 288 289 289 289 288 288 287 285 281 276 276 279 280 280 280 282 283 279 277 280 285 287 289 289 290
213 215 219 216 210 214 227 235 247 258 260 260 267 270 278 279 274 290 287 284 283 283 288 289 291 290 289 289 289 287 287 287 288 288 289 289 285 280 277 275 274 273 274 277 279 275 273 276 281 284 287 288 290 289
215 202 212 222 226 227 231 243 250 254 250 260 269 265 269 287 289 285 285 282 284 287 286 284 285 288 290 292 292 291 290 288 289 289 290 291 289 285 280 275 272 272 273 273 271 270 274 278 282 286 287 288 288 285
210 213 216 215 219 221 234 237 242 250 252 260 267 284 287 288 290 293 288 286 290 291 287 285 286 291 294 296 296 296 296 296 298 302 302 296 289 283 277 273 269 268 268 267 268 272 277 281 284 284 284 283 281 279
205 199 200 205 211 221 231 236 247 255 266 271 275 284 289 290 295 293 292 292 288 286 285 288 293 298 302 302 305 307 308 306 301 299 295 289 282 276 272 269 268 268 266 268 274 278 280 281 282 281 278 278 276 274
209 211 214 214 211 230 245 253 258 265 269 273 278 286 291 296 291 291 285 279 278 281 286 290 296 297 300 305 309 311 308 302 299 295 286 278 275 273 272 269 267 271 276 279 280 279 278 277 277 276 275 274 273 272
177 182 189 195 203 215 223 236 246 265 285 294 293 298 298 292 284 263 267 271 275 282 286 293 301 308 309 309 308 305 299 294 287 279 277 275 272 270 272 277 281 282 281 279 278 277 276 274 273 272 272 272 273 274
158 157 193 205 202 215 245 268 279 287 289 291 292 288 284 254 245 254 268 276 284 293 302 307 308 307 305 302 298 293 290 289 285 281 280 278 279 282 284 285 283 280 280 279 278 277 275 273 271 271 272 273 272 269
140 156 173 208 244 266 279 287 291 293 283 275 273 259 251 249 264 283 292 297 300 304 306 308 307 304 300 296 294 292 290 289 286 285 286 287 289 290 289 285 283 282 280 279 276 274 273 272 269 270 271 272 271 267
137 232 282 288 290 293 294 294 289 282 285 285 285 286 283 284 288 293 300 306 312 315 316 315 313 309 304 300 296 292 289 287 288 289 291 293 292 289 287 285 282 280 277 275 272 271 271 271 272 271 270 267 266 266
316 305 301 298 296 295 298 293 295 301 302 301 301 301 301 304 308 313 320 326 327 326 326 323 318 313 307 302 298 295 293 292 292 292 293 292 291 289 285 282 279 277 274 272 270 270 270 270 268 268 267 266 266 267
3 13 5 4 348 335 329 327 327 326 328 331 330 332 334 335 335 335 335 333 333 333 333 331 327 322 316 309 303 299 297 295 293 293 293 291 289 287 283 278 275 272 271 270 270 270 268 267 267 267 267 269 271 271
58 55 43 37 24 6 350 346 351 349 346 3 3 352 354 354 352 350 346 341 334 331 330 330 327 322 321 319 314 310 305 301 297 295 293 290 286 282 277 273 271 270 270 268 266 266 267 269 271 271 271 272 275 276
51 44 46 40 24 12 7 6 357 357 15 2 353 350 343 338 337 330 329 329 328 326 321 320 322 319 308 301 300 301 302 302 301 299 295 289 283 278 272 270 269 269 268 266 268 271 274 275 276 277 278 278 278 278